Overview Statistics Trail Chart Weather Telemetry Raw packets
 

This is the latest recevied weather packets stored in our database for station/object IU5GBO-13. If no packets are shown the sender has not sent any weather packets the latest 10 day(s).

<< 12 13 14 15 16 17 18 >>
Time Temp. Humidity Pressure Rain* Wind** Luminosity Snow
1777866977 12.78° C 77% 1019.7 hPa - - - -
1777866377 12.78° C 77% 1019.7 hPa - - - -
1777865777 12.78° C 77% 1019.7 hPa - - - -
1777865177 12.22° C 77% 1019.7 hPa - - - -
1777864577 12.22° C 77% 1019.9 hPa - - - -
1777863977 12.78° C 75% 1019.9 hPa - - - -
1777863377 13.33° C 73% 1019.9 hPa - - - -
1777862777 13.33° C 74% 1020 hPa - - - -
1777862177 13.33° C 75% 1019.9 hPa - - - -
1777861577 13.89° C 75% 1019.9 hPa - - - -
1777860977 13.33° C 75% 1020 hPa - - - -
1777860377 13.33° C 76% 1020 hPa - - - -
1777859777 13.33° C 77% 1020 hPa - - - -
1777859177 12.78° C 77% 1020 hPa - - - -
1777858577 13.33° C 76% 1019.8 hPa - - - -
1777857977 13.33° C 77% 1019.9 hPa - - - -
1777857377 13.33° C 76% 1019.8 hPa - - - -
1777856777 13.33° C 77% 1019.8 hPa - - - -
1777856177 13.33° C 78% 1019.7 hPa - - - -
1777855577 13.33° C 78% 1019.8 hPa - - - -
1777854977 13.33° C 77% 1019.9 hPa - - - -
1777854377 13.33° C 77% 1020 hPa - - - -
1777853177 13.89° C 77% 1020 hPa - - - -
1777852577 13.89° C 76% 1020 hPa - - - -
1777851977 14.44° C 77% 1020 hPa - - - -

* Rain since midnight (hover to see other rain measurements)
** Current wind speed in m/s (hover to see current wind gust speed)